logo tempoitalia

Diretta Meteo Aeroparque Bs As Aerodrome, Argentinalunedì 31 agosto ore 01:00

Mappa
Sereno 15 °C Sereno 24 Ore: T.min 13 T.max 18
Ponente Est Km/h 14.8 Punto di rugiada: 11 °C Umidità: 76% Visibilità: 10 Km
Il sole sorge alle: 07:13 Il sole tramonta alle: 18:34
31 Agosto 2026 01:00 tempo osservato: Sereno Sereno 15 76 1015 vento: Nord E 14.8
31 Agosto 2026 00:00 tempo osservato: Sereno Sereno 16 72 1016 vento: Nord E 18.5
30 Agosto 2026 23:00 tempo osservato: Sereno Sereno 15 76 1017 vento: Nord N 1.8
30 Agosto 2026 22:00 tempo osservato: Sereno Sereno 15 82 1015 vento: Nord E/SE 20.3
30 Agosto 2026 21:00 tempo osservato: Sereno Sereno 15 82 1015 vento: Nord E/SE 20.3
30 Agosto 2026 20:00 tempo osservato: Sereno Sereno 15 76 1015 vento: Nord E/SE 18.5
30 Agosto 2026 19:00 tempo osservato: Sereno Sereno 15 62 1015 vento: Nord E/SE 18.5
30 Agosto 2026 18:00 tempo osservato: Sereno Sereno 15 62 1015 vento: Nord E/SE 16.7
30 Agosto 2026 17:00 tempo osservato: Sereno Sereno 17 63 1015 vento: Nord E/SE 14.8
30 Agosto 2026 16:00 tempo osservato: Sereno Sereno 18 63 1015 vento: Nord E 11.1
30 Agosto 2026 15:00 tempo osservato: Sereno Sereno 18 55 1015 vento: Nord E/SE 11.1
30 Agosto 2026 14:00 tempo osservato: Sereno Sereno 16 67 1016 vento: Nord E 9.3
30 Agosto 2026 13:00 tempo osservato: Sereno Sereno 16 67 1017 vento: Nord E/NE 9.3
30 Agosto 2026 12:00 tempo osservato: Sereno Sereno 15 76 1018 vento: Nord NE 9.3
30 Agosto 2026 11:00 tempo osservato: Sereno Sereno 15 76 1018 vento: Nord N/NE 11.1
30 Agosto 2026 10:00 tempo osservato: Sereno Sereno 14 82 1018 vento: Nord N/NE 13
30 Agosto 2026 09:00 tempo osservato: Sereno Sereno 14 82 1018 vento: Nord N 13
30 Agosto 2026 08:00 tempo osservato: Sereno Sereno 13 81 1017 vento: Nord N/NE 11.1
30 Agosto 2026 07:00 tempo osservato: Sereno Sereno 13 76 1017 vento: Nord N 13
30 Agosto 2026 06:00 tempo osservato: Sereno Sereno 14 71 1017 vento: Nord N/NE 11.1
30 Agosto 2026 05:00 tempo osservato: Sereno Sereno 14 67 1017 vento: Nord N 11.1
30 Agosto 2026 04:00 tempo osservato: Sereno Sereno 14 67 1017 vento: Nord N 7.4
30 Agosto 2026 03:00 tempo osservato: Sereno Sereno 14 71 1017 vento: Nord N/NE 9.3
30 Agosto 2026 02:00 tempo osservato: Sereno Sereno 13 76 1017 vento: Nord N 1.8